Location: Marengo
(51.4813°N, 109.7825°W)
Time: 23:50:25
(UTC+00:00)

Envisat - Pass Details

Date: 02 February 2022
Orbit: 764 x 765 km, 98.2° (Epoch: 22 May)

Event Time Altitude Azimuth Distance (km) Brightness Sun altitude
Rises 13:15:19 0° 9° (N) 3,245 6.3 -15.7°
Reaches altitude 10° 13:17:45 10° 2° (N) 2,314 5.4 -15.3°
Maximum altitude 13:22:27 39° 295° (WNW) 1,148 3.4 -14.6°
Drops below altitude 10° 13:27:07 10° 228° (SW) 2,301 5.1 -13.9°
Sets 13:29:32 0° 221° (SW) 3,223 5.9 -13.5°
